Weather History for Erwin, NC

Change the Weather History Date:

Thursday, January 3, 2013

  Actual Average Record
Temperature  
Mean Temperature 39 °F -  
Max Temperature 45 °F 50 °F 75 °F (2004)
Min Temperature 32 °F 31 °F 17 °F (1969)
Degree Days  
Heating Degree Days 26    
Moisture  
Dew Point 36 °F    
Average Humidity 84    
Maximum Humidity 99    
Minimum Humidity 57    
Precipitation  
Precipitation 0.01 in - - ()
Sea Level Pressure  
Sea Level Pressure 30.21 in    
Wind  
Wind Speed 1 mph (ENE)    
Max Wind Speed 8 mph    
Max Gust Speed -    
Visibility 8 miles    
Events Rain    
Averages and records for this station are not official NWS values.
T = Trace of Precipitation, MM = Missing Value Source: NWS Daily Summary

Daily Weather History Graph

Daily Weather History Graph

Search for Another Location

Airport:

Trip Planner

Search our weather history database for the weather conditions in past years. The results will help you decide how hot, cold, wet, or windy it might be!

Date:

Astronomy

Jan. 03, 2013 Rise Set
Actual Time 7:24 AM EST 5:15 PM EST
Civil Twilight 6:56 AM EST 5:43 PM EST
Nautical Twilight 6:24 AM EST 6:14 PM EST
Astronomical Twilight 5:53 AM EST 6:45 PM EST
Moon 11:33 PM EST (1/3) 10:48 AM EST (1/3)
Length of Visible Light 10h 47m
Length of Day
9h 50m
Waning Gibbous, 65% of the Moon is Illuminated
Jan 3
Waning Gibbous
Jan 4
Last Quarter
Jan 11
New
Jan 18
First Quarter
Jan 26
Full

Hourly Weather History & Observations

Time (EST) Temp. Windchill Dew Point Humidity Pressure Visibility Wind Dir Wind Speed Gust Speed Precip Events Conditions
12:15 AM 41.5 °F - 38.5 °F 89% 30.19 in 10.0 mi Calm Calm - N/A   Clear
12:35 AM 41.4 °F - 39.4 °F 93% 30.18 in 10.0 mi Calm Calm - N/A   Clear
12:55 AM 41.5 °F - 39.6 °F 93% 30.18 in 10.0 mi Calm Calm - N/A   Scattered Clouds
1:15 AM 41.5 °F 39.6 °F 39.7 °F 93% 30.16 in 7.0 mi East 3.5 mph - N/A   Mostly Cloudy
1:35 AM 41.4 °F 38.4 °F 39.9 °F 95% 30.15 in 7.0 mi East 4.6 mph - N/A   Scattered Clouds
1:55 AM 41.2 °F - 40.1 °F 96% 30.15 in 7.0 mi Calm Calm - N/A   Scattered Clouds
2:15 AM 41.2 °F - 39.9 °F 95% 30.16 in 7.0 mi Calm Calm - N/A   Mostly Cloudy
2:35 AM 41.2 °F - 40.1 °F 96% 30.17 in 7.0 mi Calm Calm - N/A   Scattered Clouds
2:55 AM 41.0 °F - 39.7 °F 95% 30.18 in 7.0 mi Calm Calm - N/A   Scattered Clouds
3:15 AM 40.6 °F - 40.1 °F 98% 30.18 in 5.0 mi Calm Calm - N/A   Scattered Clouds
3:35 AM 41.2 °F 39.2 °F 40.3 °F 97% 30.17 in 7.0 mi NE 3.5 mph - N/A   Overcast
3:55 AM 41.0 °F - 40.1 °F 97% 30.17 in 5.0 mi Calm Calm - N/A   Overcast
4:15 AM 41.0 °F 39.0 °F 39.7 °F 95% 30.18 in 5.0 mi North 3.5 mph - N/A   Light Drizzle
4:35 AM 40.8 °F - 39.9 °F 97% 30.19 in 5.0 mi Calm Calm - N/A   Light Drizzle
4:55 AM 40.8 °F - 40.1 °F 97% 30.18 in 5.0 mi Calm Calm - N/A Rain Light Rain
5:15 AM 40.6 °F 38.6 °F 40.1 °F 98% 30.17 in 5.0 mi SSE 3.5 mph - N/A   Light Drizzle
5:35 AM 40.6 °F - 40.1 °F 98% 30.16 in 4.0 mi Calm Calm - N/A   Light Drizzle
5:55 AM 41.0 °F - 40.1 °F 97% 30.18 in 5.0 mi Calm Calm - 0.01 in   Light Drizzle
6:15 AM 40.6 °F - 39.9 °F 97% 30.17 in 4.0 mi Calm Calm - N/A   Overcast
6:35 AM 40.6 °F - 40.1 °F 98% 30.18 in 5.0 mi Calm Calm - N/A   Overcast
6:55 AM 40.6 °F - 40.1 °F 98% 30.19 in 5.0 mi Calm Calm - N/A   Overcast
7:15 AM 40.6 °F 37.5 °F 39.7 °F 97% 30.19 in 5.0 mi East 4.6 mph - N/A   Overcast
7:35 AM 40.5 °F 37.3 °F 39.6 °F 97% 30.19 in 5.0 mi NE 4.6 mph - N/A   Overcast
7:55 AM 40.5 °F 38.4 °F 39.4 °F 96% 30.20 in 4.0 mi NNE 3.5 mph - N/A   Overcast
8:15 AM 40.5 °F 35.8 °F 39.4 °F 96% 30.20 in 4.0 mi NE 6.9 mph - N/A   Overcast
8:35 AM 40.6 °F 37.5 °F 39.4 °F 95% 30.21 in 4.0 mi NE 4.6 mph - N/A   Overcast
8:55 AM 40.6 °F 36.0 °F 39.0 °F 94% 30.22 in 5.0 mi NE 6.9 mph - N/A   Overcast
9:15 AM 41.0 °F 35.8 °F 38.7 °F 91% 30.22 in 5.0 mi ENE 8.1 mph - N/A   Overcast
9:35 AM 41.4 °F 36.8 °F 38.5 °F 89% 30.23 in 7.0 mi ENE 6.9 mph - N/A   Overcast
9:55 AM 41.4 °F 37.6 °F 37.2 °F 85% 30.23 in 7.0 mi East 5.8 mph - N/A   Overcast
10:15 AM 41.9 °F 40.0 °F 36.9 °F 82% 30.24 in 7.0 mi ENE 3.5 mph - N/A   Overcast
10:35 AM 42.1 °F 37.7 °F 35.8 °F 78% 30.23 in 7.0 mi ENE 6.9 mph - N/A   Overcast
10:55 AM 42.1 °F 38.4 °F 35.2 °F 77% 30.23 in 10.0 mi NE 5.8 mph - N/A   Overcast
11:15 AM 42.4 °F 39.6 °F 34.7 °F 74% 30.22 in 10.0 mi ENE 4.6 mph - N/A   Overcast
11:35 AM 42.6 °F 40.9 °F 34.3 °F 73% 30.22 in 10.0 mi NE 3.5 mph - N/A   Overcast
11:55 AM 43.0 °F 39.5 °F 32.9 °F 68% 30.21 in 10.0 mi ENE 5.8 mph - N/A   Overcast
12:15 PM 42.8 °F 40.1 °F 32.5 °F 67% 30.20 in 10.0 mi East 4.6 mph - N/A   Overcast
12:35 PM 43.7 °F 41.1 °F 32.4 °F 64% 30.19 in 10.0 mi ESE 4.6 mph - N/A   Mostly Cloudy
12:55 PM 43.7 °F - 32.5 °F 65% 30.18 in 10.0 mi Calm Calm - N/A   Mostly Cloudy
1:15 PM 43.7 °F - 32.0 °F 63% 30.17 in 10.0 mi Calm Calm - N/A   Overcast
1:35 PM 43.5 °F - 32.0 °F 64% 30.16 in 10.0 mi Calm Calm - N/A   Mostly Cloudy
1:55 PM 43.9 °F - 31.5 °F 62% 30.16 in 10.0 mi Calm Calm - N/A   Scattered Clouds
2:15 PM 44.1 °F 41.5 °F 30.2 °F 58% 30.16 in 10.0 mi ESE 4.6 mph - N/A   Scattered Clouds
2:35 PM 45.0 °F - 30.7 °F 57% 30.16 in 10.0 mi Calm Calm - N/A   Scattered Clouds
2:55 PM 45.0 °F - 31.1 °F 58% 30.16 in 10.0 mi Calm Calm - N/A   Mostly Cloudy
3:15 PM 44.6 °F - 31.5 °F 60% 30.18 in 10.0 mi Calm Calm - N/A   Overcast
3:35 PM 44.6 °F - 30.0 °F 57% 30.19 in 10.0 mi Calm Calm - N/A   Overcast
3:55 PM 44.6 °F - 30.9 °F 59% 30.19 in 10.0 mi Calm Calm - N/A   Overcast
4:15 PM 44.6 °F - 31.5 °F 60% 30.20 in 10.0 mi Calm Calm - N/A   Overcast
4:35 PM 44.6 °F - 32.0 °F 61% 30.21 in 10.0 mi Calm Calm - N/A   Overcast
4:55 PM 44.4 °F - 32.0 °F 62% 30.21 in 10.0 mi Calm Calm - N/A   Overcast
5:15 PM 44.6 °F - 32.9 °F 64% 30.20 in 10.0 mi Calm Calm - N/A   Overcast
5:35 PM 44.4 °F - 33.1 °F 64% 30.21 in 10.0 mi Calm Calm - N/A   Overcast
5:55 PM 43.7 °F - 33.8 °F 68% 30.21 in 10.0 mi Calm Calm - N/A   Overcast
6:15 PM 43.2 °F - 35.6 °F 75% 30.23 in 10.0 mi Calm Calm - N/A   Mostly Cloudy
6:35 PM 41.7 °F - 34.5 °F 76% 30.23 in 10.0 mi Calm Calm - N/A   Mostly Cloudy
6:55 PM 41.0 °F - 35.8 °F 82% 30.23 in 10.0 mi Calm Calm - N/A   Scattered Clouds
7:15 PM 39.7 °F - 35.2 °F 84% 30.24 in 10.0 mi Calm Calm - N/A   Clear
7:35 PM 40.1 °F - 34.9 °F 82% 30.24 in 10.0 mi Calm Calm - N/A   Clear
7:55 PM 37.8 °F - 35.6 °F 92% 30.25 in 10.0 mi Calm Calm - N/A   Scattered Clouds
8:15 PM 37.9 °F - 36.3 °F 94% 30.25 in 10.0 mi Calm Calm - N/A   Scattered Clouds
8:35 PM 37.0 °F - 35.8 °F 95% 30.25 in 10.0 mi Calm Calm - N/A   Clear
8:55 PM 36.7 °F - 35.1 °F 94% 30.26 in 10.0 mi Calm Calm - N/A   Scattered Clouds
9:15 PM 35.1 °F - 34.7 °F 99% 30.26 in 7.0 mi Calm Calm - N/A   Clear
9:35 PM 34.2 °F 31.2 °F 33.8 °F 99% 30.27 in 5.0 mi NW 3.5 mph - N/A   Clear
9:55 PM 34.5 °F - 34.3 °F 99% 30.27 in 5.0 mi Calm Calm - N/A   Clear
10:15 PM 34.7 °F - 34.2 °F 98% 30.27 in 5.0 mi Calm Calm - N/A   Clear
10:35 PM 34.7 °F - 34.3 °F 99% 30.27 in 7.0 mi Calm Calm - N/A   Clear
10:55 PM 33.6 °F - 32.9 °F 97% 30.27 in 7.0 mi Calm Calm - N/A   Clear
11:15 PM 33.4 °F - 32.9 °F 98% 30.27 in 10.0 mi Calm Calm - N/A   Clear
11:35 PM 33.1 °F - 32.5 °F 98% 30.27 in 10.0 mi Calm Calm - N/A   Clear
11:55 PM 32.7 °F - 32.2 °F 98% 30.27 in 7.0 mi Calm Calm - N/A   Clear